{"data":{"norad_id":53140,"intl_designator":"2022-083J","name":"STARLINK-4170","alt_names":[],"object_type":"PAYLOAD","status":"ACTIVE","operator":null,"country":"US","launch_date":"2022-07-17","launch_site_code":"AFETR","launch_vehicle":null,"mission":null,"orbit_class":"UNKNOWN","rcs_meters":null,"size_class":null,"mass_kg":null,"dimensions":null,"purposes":["comms"],"wikipedia_slug":null,"has_3d_model":false,"image_url":null,"decayed_at":null,"tle_current":{"epoch":"2026-09-20T00:08:23.967744Z","epoch_age_seconds":114949,"freshness":"FRESH","line1":"1 53140U 22083J   26263.00583296  .00001309  00000+0  48449-4 0  9995","line2":"2 53140  53.1605   8.4521 0001239  83.9193 276.1951 15.35394688230731","mean_motion":15.35394688,"eccentricity":0.0001239,"inclination_deg":53.1605,"raan_deg":8.4521,"arg_perigee_deg":83.9193,"mean_anomaly_deg":276.1951,"bstar":4.8449e-5,"rev_number":23073,"period_min":93.786959877772,"perigee_km":458.90120003275,"apogee_km":460.59562803835,"semimajor_km":6837.8854140355,"source":"CELESTRAK","updated_at":"2026-09-20T09:00:40.179848Z"}}}